Temperature
18 18 18 18 18 18 18 18 18 18 18 18 18 18 18 18 18 18 18 18 18 18 17 17 18 18 18 18 17 17 17 17 17 17 17 16 16 16 16 16 16 16 16
18 18 18 18 18 18 18 18 18 18 18 18 18 18 17 18 18 18 18 18 18 18 18 18 18 18 18 18 18 18 18 18 17 17 17 17 17 16 16 16 16 16 16
18 18 18 18 18 18 18 18 18 18 18 18 18 18 18 18 18 18 18 18 18 18 18 18 18 18 18 18 18 18 18 18 17 17 17 17 17 17 16 16 16 16 16
18 18 18 18 18 18 18 18 18 18 18 18 18 18 18 18 18 18 18 18 18 18 18 18 18 18 18 18 18 18 18 18 17 17 18 17 17 17 17 17 16 16 15
18 18 18 18 18 18 18 18 18 18 18 18 18 18 18 18 18 18 18 18 18 18 18 18 18 18 18 18 18 18 18 18 18 18 18 17 17 17 17 17 16 16 15
18 18 18 18 18 18 18 18 18 18 18 18 18 18 18 18 18 19 19 19 19 19 19 19 18 18 18 18 18 18 18 18 18 18 18 17 17 17 17 16 16 16 16
18 18 18 18 18 18 18 18 18 17 17 17 17 18 19 19 19 19 19 19 19 19 19 18 18 18 18 18 18 18 18 18 18 18 18 17 17 17 16 16 16 16 16
18 18 18 17 17 17 17 17 17 17 17 17 17 18 19 20 19 19 18 18 18 18 18 18 18 18 18 18 18 18 18 18 18 18 18 17 17 17 16 16 16 16 16
18 18 17 17 17 17 17 17 17 17 16 16 16 17 18 19 19 19 18 18 17 18 18 18 17 17 17 18 18 18 18 18 18 18 18 18 17 17 17 16 16 16 16
17 17 16 16 16 16 16 16 16 16 16 16 16 16 16 16 16 18 18 18 17 17 17 17 17 17 17 17 18 18 18 18 18 18 18 18 17 17 17 17 16 16 16
16 15 15 15 15 15 16 16 16 16 15 15 16 16 16 16 15 15 17 17 17 17 17 17 17 17 17 17 17 17 17 18 18 17 17 17 17 17 17 17 16 16 16
15 15 14 14 14 15 15 16 15 15 15 15 15 15 15 15 15 15 15 16 16 17 16 16 16 16 16 17 17 17 17 17 17 17 17 17 17 17 17 17 17 16 16
15 15 15 14 14 15 15 15 15 15 14 15 15 15 15 15 15 15 15 15 15 16 16 16 16 16 16 16 16 16 17 17 17 17 17 17 17 17 17 17 17 16 16
15 15 14 14 14 14 14 14 14 14 14 14 14 14 14 14 14 14 14 15 15 16 16 15 15 15 15 15 15 16 16 16 16 16 16 16 16 16 17 17 17 16 16
14 14 14 14 14 14 14 14 14 14 14 14 14 14 14 14 14 14 14 14 15 16 16 15 15 14 14 14 15 15 15 15 15 15 15 15 16 16 16 16 16 16 16
13 13 13 13 13 13 13 14 13 13 13 13 14 14 14 14 14 14 14 14 14 14 15 15 14 14 14 14 14 15 15 15 15 15 15 15 15 15 16 16 16 16 16
13 13 13 13 13 13 12 12 13 13 13 13 13 13 13 13 13 13 13 13 13 13 14 14 14 14 14 14 15 15 15 15 14 14 14 14 15 15 15 16 16 16 15
12 12 12 12 12 12 12 12 12 12 12 12 12 12 12 12 12 12 13 13 13 13 13 13 14 14 14 14 14 15 14 14 14 14 14 14 14 14 15 15 15 15 15
12 12 12 11 11 11 12 12 12 12 12 12 11 12 12 12 12 12 12 12 13 13 13 13 13 13 13 13 14 14 14 14 14 13 13 13 13 14 14 14 15 15 15
12 12 11 11 11 11 11 11 11 11 11 11 11 11 11 11 11 11 12 12 12 12 13 13 13 13 13 13 13 13 13 13 13 13 13 13 13 13 14 14 14 14 14
11 11 11 11 11 11 11 11 11 11 11 11 11 11 11 12 12 12 12 12 12 12 13 13 13 13 12 12 12 12 12 12 12 12 12 12 12 13 13 13 13 13 13
11 11 11 11 11 11 11 11 11 11 11 11 11 11 11 11 11 12 12 12 12 12 12 12 13 12 12 12 12 12 12 12 11 12 12 12 12 12 12 12 13 13 13
11 11 11 11 12 11 11 11 11 11 11 11 11 11 11 11 11 11 11 11 11 12 12 11 11 11 11 11 11 12 11 11 11 11 11 11 11 11 12 12 12 12 12
11 11 11 11 12 11 11 11 11 11 11 11 10 10 10 11 11 11 11 11 11 11 11 11 11 11 11 12 12 12 12 12 12 11 11 11 11 11 11 11 12 12 12
11 11 11 11 11 11 11 11 11 10 10 10 10 10 10 10 11 10 10 10 10 10 11 11 11 11 11 11 12 12 12 13 12 12 11 11 11 11 11 11 11 11 11
11 11 11 11 11 11 11 11 11 11 10 10 10 10 10 10 10 10 10 10 10 10 10 11 10 10 10 10 11 11 11 12 12 12 11 11 11 11 11 10 10 11 11
Wind_Speed
9 8 8 8 10 9 8 8 9 8 9 10 10 10 10 10 11 10 10 11 15 16 15 14 14 14 15 15 16 17 17 16 16 18 19 20 21 21 20 21 22 23 22
10 9 9 9 10 10 10 9 9 9 9 8 10 10 11 11 10 10 12 11 16 18 16 15 14 14 15 15 16 17 17 16 16 17 17 18 19 19 19 19 21 23 24
13 11 11 10 11 11 11 10 10 10 10 9 10 11 10 10 10 10 12 11 11 16 19 17 16 15 15 16 16 17 17 17 17 17 17 17 17 17 18 19 20 22 25
16 13 12 12 11 11 10 9 10 10 10 9 9 9 9 9 11 11 12 11 10 10 13 19 17 16 15 16 17 17 17 17 18 18 18 17 17 17 16 17 18 20 24
18 15 13 12 12 10 10 10 10 10 10 10 10 10 11 10 11 12 12 12 12 11 12 12 17 16 16 16 17 18 17 18 18 19 18 18 18 17 17 16 18 19 23
17 15 13 14 12 11 10 9 10 9 10 10 12 12 12 13 13 14 14 13 12 13 14 13 11 14 18 17 17 18 18 18 18 19 19 19 19 19 19 19 19 19 22
16 12 13 12 11 10 11 10 9 11 11 9 11 13 13 14 13 12 12 13 13 13 13 12 12 11 10 18 19 18 18 18 19 20 20 20 20 20 21 21 21 21 22
14 11 12 10 10 9 10 10 9 10 10 8 9 10 10 10 10 10 9 10 11 10 12 12 11 10 10 10 11 17 17 18 19 20 20 21 21 21 22 22 22 22 22
12 8 8 8 9 9 9 8 8 9 9 9 8 7 7 8 6 6 6 7 7 7 8 7 8 8 9 9 9 13 16 16 17 19 19 19 19 20 21 22 23 23 23
9 8 7 6 8 8 7 7 6 6 7 8 6 7 8 8 7 8 8 7 6 6 6 5 6 6 7 8 9 9 11 14 16 17 17 18 18 18 19 20 23 23 24
4 5 5 6 7 6 6 5 4 5 5 6 6 6 7 7 10 8 9 8 7 6 5 5 5 5 6 8 9 11 12 14 15 15 15 15 14 13 14 17 20 22 24
4 4 4 5 6 6 5 5 4 5 4 4 5 5 5 5 5 6 7 8 7 5 4 4 4 4 4 6 8 0 5 11 13 13 12 11 11 12 14 17 19 21 24
5 6 6 6 6 6 6 5 5 4 4 3 4 4 4 4 4 5 6 6 6 4 3 3 1 2 3 5 5 2 6 8 9 8 8 9 10 12 14 17 20 22 24
6 7 7 7 8 8 7 5 5 5 3 3 3 3 4 3 3 3 3 5 6 4 3 2 2 2 4 5 5 7 4 5 5 5 7 9 11 13 15 17 20 22 23
6 7 7 7 7 6 6 6 4 4 4 3 2 2 3 2 3 3 3 4 5 6 5 2 3 4 6 6 6 7 5 5 5 5 7 8 10 13 14 16 18 20 21
6 7 6 6 6 5 5 4 5 3 3 1 0 1 2 3 3 3 4 4 4 6 6 5 5 7 8 6 6 7 6 4 7 6 6 8 10 12 14 15 15 16 18
6 6 6 6 5 5 5 4 3 4 2 2 2 2 3 4 4 3 4 4 4 5 7 7 5 6 6 7 5 5 5 5 5 6 6 7 10 12 13 13 12 12 15
6 5 5 5 5 5 4 5 4 4 5 5 4 4 4 3 4 5 5 5 5 5 7 8 7 6 6 6 6 6 5 5 4 4 4 6 9 10 11 11 10 10 14
6 6 5 6 6 6 6 6 7 7 7 7 6 6 5 5 6 6 6 7 6 5 5 5 6 5 5 7 8 7 6 5 4 3 3 4 6 8 8 8 6 7 13
6 7 7 7 7 7 7 8 9 8 8 8 8 7 7 7 7 6 5 6 7 6 5 5 6 6 7 9 9 9 8 5 3 2 1 3 4 5 4 5 3 4 11
8 8 9 9 9 8 8 9 10 10 10 11 10 10 9 8 8 7 7 8 8 7 7 8 8 9 10 10 10 9 9 8 3 2 1 2 3 4 3 1 2 6 11
8 9 10 10 10 9 10 9 9 11 11 11 10 9 9 9 7 7 7 8 9 9 10 9 10 10 10 10 9 8 8 7 5 5 3 2 3 4 4 3 5 8 11
9 10 10 11 11 10 10 10 8 10 11 10 9 8 9 10 9 8 6 6 9 7 5 9 11 11 11 10 10 10 8 6 5 5 3 3 4 4 4 4 6 8 10
9 9 10 11 11 9 8 9 6 10 10 9 8 8 9 9 10 9 8 9 9 10 9 9 9 9 10 10 10 8 5 1 2 3 4 3 3 3 4 3 3 5 8
9 9 10 11 11 9 6 4 2 8 7 7 7 7 8 9 12 13 7 7 7 6 5 4 3 3 3 6 10 10 10 9 6 5 5 3 2 1 2 3 3 1 5
9 9 9 9 10 9 6 1 4 4 5 5 5 6 10 9 11 13 8 8 7 7 7 5 2 3 5 7 9 11 11 10 9 6 8 5 3 1 1 1 1 1 2
Wind_Direction
241 243 246 251 257 257 250 245 256 268 272 269 268 268 274 272 268 268 268 242 240 244 248 254 252 246 246 243 234 233 234 233 232 232 233 235 236 236 235 234 230 223 216
242 245 243 242 249 253 258 265 266 267 267 271 272 274 275 276 272 267 265 258 233 232 237 245 251 246 240 237 234 234 233 231 230 230 231 233 234 235 236 235 231 223 215
235 239 247 247 248 250 250 252 259 261 263 262 262 265 265 266 267 262 264 267 258 225 219 229 238 241 237 235 233 230 228 227 226 227 229 231 233 235 236 235 231 225 215
237 238 245 248 249 252 254 252 256 262 263 266 270 273 273 269 263 261 260 253 256 261 227 213 224 233 234 232 231 229 226 224 223 224 227 230 231 232 233 234 230 226 216
237 237 245 250 255 254 255 259 257 262 269 271 273 269 269 267 267 263 261 262 258 252 257 216 209 225 231 231 229 229 227 223 221 222 226 229 231 230 230 233 231 228 217
243 245 246 247 251 255 257 258 264 262 268 273 278 280 275 271 267 264 261 257 253 252 252 249 229 223 219 227 230 231 231 226 221 221 225 230 231 229 228 230 230 228 220
256 253 254 254 251 250 253 255 258 264 266 273 277 278 272 265 260 259 260 264 261 255 253 248 242 246 226 215 222 231 234 231 224 222 226 230 232 230 228 229 230 227 221
258 254 251 253 253 251 250 255 257 271 276 269 272 284 285 276 251 247 253 257 263 261 248 235 231 234 249 252 221 214 227 234 231 227 228 232 235 235 233 231 230 226 221
257 244 242 248 250 250 248 250 257 259 268 269 259 263 281 288 309 262 252 260 261 261 254 246 232 229 235 248 256 214 214 227 234 234 234 236 239 240 238 234 230 224 219
237 229 207 218 243 245 239 238 241 254 259 266 258 246 253 270 272 281 264 241 237 245 246 237 237 233 239 246 245 258 223 227 232 237 240 242 243 244 242 238 235 227 219
218 211 191 188 220 234 229 230 228 247 253 267 272 266 261 256 251 258 274 278 271 252 231 231 243 250 249 242 243 246 215 228 237 243 248 251 252 253 252 249 245 236 224
171 167 170 188 215 221 212 214 220 223 248 266 275 270 271 272 273 263 272 282 280 269 263 260 256 259 264 264 263 61 220 238 242 244 245 249 254 257 258 257 253 245 234
176 170 169 192 208 209 207 210 214 225 223 244 266 278 279 281 289 292 289 296 294 291 273 256 295 313 310 308 311 3 246 237 237 236 242 248 253 257 259 259 256 249 240
171 165 174 192 200 198 199 205 212 207 210 232 256 284 290 304 315 320 315 314 313 306 284 320 349 2 352 332 350 308 261 179 205 227 241 252 259 262 262 261 256 249 241
158 165 176 189 193 192 195 208 210 208 210 232 242 253 285 309 303 316 316 319 321 319 322 345 342 348 337 326 323 305 292 164 202 229 248 262 268 270 270 268 258 244 234
152 161 171 178 179 177 183 211 198 193 207 191 336 1 330 324 324 315 314 311 303 301 303 312 316 323 328 319 309 302 297 193 218 231 252 270 279 280 281 280 267 242 222
155 163 166 169 170 169 175 193 190 177 172 123 84 57 40 11 351 339 338 326 310 301 293 298 297 309 308 311 311 294 276 257 240 224 253 276 284 288 289 290 277 239 213
156 157 159 161 164 161 164 168 154 129 103 87 69 57 42 39 27 12 352 351 337 316 302 309 315 319 317 321 315 298 280 260 250 221 256 287 292 296 300 301 283 238 206
139 140 148 148 143 141 139 128 109 95 86 79 73 66 54 44 31 25 4 359 345 340 336 322 335 345 345 351 340 331 306 277 252 217 238 279 294 306 312 314 293 227 192
131 132 133 130 128 126 120 110 99 91 88 84 77 68 56 44 29 12 12 12 4 4 25 23 25 23 19 11 9 359 348 322 279 245 339 343 322 300 321 342 329 184 170
130 128 126 121 118 116 110 107 105 101 96 91 83 73 63 57 43 21 22 19 19 22 37 41 40 36 28 19 15 5 358 348 356 10 313 313 312 307 318 16 72 143 153
128 127 123 115 108 100 84 81 100 101 96 91 86 82 81 66 83 80 57 44 28 29 30 29 40 34 27 17 9 12 11 12 10 358 338 344 346 327 326 339 106 133 150
134 130 125 115 108 105 97 86 83 101 95 85 77 64 60 55 36 57 97 126 74 54 22 27 43 28 23 12 360 11 25 28 22 351 359 26 6 343 348 34 123 144 152
139 137 132 124 120 118 108 105 104 104 98 90 80 71 64 54 30 12 55 63 62 54 42 42 42 34 30 7 353 354 354 18 99 47 31 36 17 357 354 36 108 157 169
140 142 138 136 132 132 137 144 183 119 110 97 82 62 54 57 17 353 39 52 51 54 102 95 17 332 317 349 357 4 3 1 16 53 36 24 12 7 14 31 49 118 187
143 142 137 141 141 142 146 158 277 141 124 124 112 101 68 42 18 4 27 36 34 20 10 24 29 3 16 29 24 16 7 4 3 21 22 359 4 15 70 71 56 184 183
Height
1551 1551 1550 1550 1550 1551 1550 1549 1548 1548 1547 1547 1547 1546 1545 1544 1543 1543 1542 1541 1540 1540 1540 1539 1539 1539 1539 1539 1540 1541 1542 1542 1543 1543 1543 1544 1544 1545 1545 1546 1548 1549 1551
1547 1547 1547 1546 1547 1547 1547 1546 1546 1545 1544 1543 1542 1542 1540 1540 1539 1538 1538 1537 1536 1535 1535 1535 1535 1534 1534 1535 1536 1537 1537 1538 1539 1539 1539 1540 1540 1540 1541 1542 1543 1544 1546
1543 1543 1544 1544 1544 1544 1543 1542 1542 1541 1540 1539 1538 1538 1536 1535 1535 1533 1533 1533 1532 1531 1530 1530 1530 1530 1530 1531 1531 1532 1533 1534 1535 1535 1535 1536 1536 1537 1537 1538 1538 1540 1541
1539 1539 1540 1540 1540 1539 1539 1539 1538 1537 1537 1535 1534 1533 1532 1531 1530 1529 1529 1528 1527 1528 1527 1526 1526 1526 1526 1527 1527 1528 1529 1530 1530 1531 1532 1532 1533 1533 1534 1534 1534 1535 1536
1534 1534 1535 1535 1535 1535 1534 1534 1534 1533 1532 1531 1529 1528 1527 1526 1525 1524 1524 1523 1523 1522 1522 1522 1521 1522 1522 1523 1523 1524 1524 1525 1526 1527 1528 1529 1529 1530 1530 1530 1531 1531 1532
1529 1530 1530 1530 1530 1529 1529 1528 1528 1527 1526 1525 1524 1523 1521 1520 1518 1518 1517 1517 1516 1516 1517 1518 1517 1518 1518 1519 1519 1520 1520 1521 1521 1522 1524 1525 1525 1526 1526 1526 1527 1527 1527
1524 1525 1525 1525 1524 1524 1524 1524 1523 1523 1522 1521 1520 1517 1515 1513 1511 1511 1510 1510 1510 1510 1510 1511 1511 1513 1514 1514 1514 1515 1515 1516 1517 1517 1519 1520 1521 1521 1522 1522 1522 1523 1523
1517 1518 1518 1518 1519 1518 1518 1518 1518 1518 1518 1517 1516 1513 1510 1508 1505 1505 1505 1504 1503 1503 1503 1504 1504 1505 1507 1509 1510 1510 1510 1512 1512 1513 1513 1515 1516 1516 1517 1517 1518 1518 1518
1508 1508 1508 1510 1511 1512 1512 1512 1513 1512 1512 1512 1511 1509 1507 1503 1502 1501 1500 1499 1498 1497 1498 1498 1499 1499 1500 1502 1504 1505 1505 1506 1507 1508 1508 1509 1510 1511 1512 1512 1512 1512 1512
1498 1496 1494 1497 1502 1505 1506 1507 1508 1507 1507 1507 1506 1504 1503 1501 1500 1497 1496 1494 1493 1493 1493 1493 1494 1494 1495 1496 1497 1499 1499 1500 1501 1502 1503 1504 1505 1505 1506 1506 1506 1506 1506
1488 1486 1484 1486 1493 1498 1500 1502 1503 1503 1503 1503 1502 1500 1498 1496 1495 1494 1491 1490 1490 1489 1489 1489 1489 1489 1489 1490 1491 1493 1493 1494 1495 1496 1497 1498 1498 1498 1499 1499 1499 1499 1499
1481 1481 1480 1484 1490 1494 1497 1498 1499 1499 1499 1498 1497 1497 1495 1494 1491 1490 1488 1486 1485 1485 1485 1485 1485 1485 1485 1485 1486 1487 1487 1488 1488 1489 1490 1491 1491 1491 1491 1491 1490 1490 1491
1480 1480 1480 1484 1488 1492 1494 1495 1495 1496 1495 1494 1494 1494 1493 1491 1489 1488 1486 1485 1483 1482 1481 1481 1481 1480 1480 1480 1481 1481 1481 1481 1482 1482 1483 1484 1484 1484 1484 1483 1482 1482 1482
1477 1479 1480 1483 1487 1490 1491 1492 1493 1493 1492 1492 1492 1491 1490 1489 1488 1486 1485 1484 1482 1481 1479 1479 1478 1477 1476 1476 1475 1475 1476 1475 1476 1476 1476 1476 1477 1476 1476 1475 1474 1473 1474
1475 1477 1480 1483 1485 1487 1488 1489 1490 1489 1489 1490 1490 1488 1488 1487 1487 1486 1484 1483 1483 1480 1479 1477 1477 1475 1473 1472 1471 1471 1471 1471 1471 1471 1470 1470 1470 1469 1469 1468 1466 1465 1466
1474 1476 1479 1481 1483 1485 1485 1486 1488 1487 1487 1487 1487 1486 1486 1486 1485 1484 1483 1482 1481 1480 1478 1476 1474 1473 1471 1470 1468 1467 1467 1467 1466 1465 1465 1464 1464 1463 1462 1461 1460 1458 1459
1474 1476 1478 1480 1482 1483 1484 1485 1487 1486 1486 1486 1486 1485 1484 1484 1484 1484 1482 1481 1480 1478 1476 1474 1472 1470 1468 1467 1465 1464 1463 1462 1461 1460 1460 1459 1458 1458 1456 1455 1454 1453 1453
1474 1476 1478 1480 1481 1483 1483 1484 1485 1485 1485 1485 1485 1484 1484 1484 1483 1483 1481 1480 1479 1476 1474 1471 1470 1468 1466 1464 1462 1460 1459 1458 1457 1456 1456 1455 1454 1453 1451 1450 1449 1449 1449
1474 1476 1478 1480 1481 1482 1483 1484 1484 1484 1484 1484 1484 1484 1484 1484 1483 1482 1481 1480 1478 1476 1472 1470 1468 1467 1465 1462 1460 1458 1456 1454 1453 1452 1452 1451 1451 1450 1448 1446 1445 1445 1446
1475 1477 1479 1480 1481 1483 1484 1484 1484 1484 1484 1484 1484 1485 1485 1485 1483 1482 1481 1480 1477 1475 1472 1470 1468 1467 1465 1462 1459 1456 1453 1452 1450 1449 1448 1448 1448 1447 1446 1444 1443 1443 1444
1477 1478 1480 1481 1483 1484 1484 1484 1485 1485 1485 1486 1486 1486 1486 1485 1483 1482 1481 1480 1478 1475 1473 1472 1470 1469 1467 1463 1460 1456 1453 1450 1448 1447 1446 1445 1446 1446 1445 1444 1443 1442 1442
1478 1480 1482 1483 1484 1485 1485 1485 1486 1487 1488 1488 1489 1489 1488 1486 1485 1484 1482 1480 1479 1477 1476 1474 1473 1472 1470 1467 1462 1458 1455 1451 1449 1447 1445 1444 1444 1444 1445 1446 1445 1445 1445
1480 1482 1483 1485 1485 1486 1487 1488 1489 1489 1490 1490 1491 1491 1491 1489 1487 1486 1484 1482 1481 1479 1477 1477 1476 1474 1472 1469 1464 1461 1457 1454 1451 1448 1446 1444 1444 1444 1445 1445 1446 1448 1449
1481 1483 1485 1486 1487 1488 1490 1491 1491 1492 1492 1492 1492 1492 1491 1490 1488 1487 1487 1485 1483 1481 1480 1478 1478 1475 1473 1469 1466 1463 1460 1456 1454 1451 1448 1447 1446 1444 1444 1445 1446 1448 1451
1481 1484 1485 1487 1488 1489 1491 1492 1493 1494 1493 1493 1493 1492 1492 1490 1489 1488 1488 1486 1485 1484 1482 1480 1478 1476 1474 1470 1467 1465 1462 1459 1457 1454 1452 1450 1448 1446 1445 1445 1446 1447 1450
1481 1483 1486 1488 1489 1490 1491 1492 1493 1495 1494 1494 1493 1492 1491 1491 1490 1489 1488 1487 1485 1484 1483 1482 1480 1477 1475 1472 1468 1465 1463 1461 1459 1457 1455 1453 1451 1450 1449 1447 1446 1447 1448